Flag for Turkmenistan Weather past 2 weeks in Ashgabat, Turkmenistan

Now
77 °F

Passing clouds.


Feels Like: 78 °F
Forecast: 72 / 94 °F
Wind: No wind

Location: Ashgabat

Current Time: Sep 5, 2015 at 8:52:21 AM

Latest Report: Sep 5, 2015 at 8:00 AM


Visibility: 4 mi

Pressure: 30.04 "Hg

Humidity: 34%

Dew point: 46 °F

Location of AshgabatLocation

Historic Weather in Ashgabat — Graph

°F

Ashgabat temperature yesterday

Maximum temperature yesterday: 91 °F (at 2:00 PM)
Minimum temperature yesterday: 72 °F (at 3:00 AM)
Average temperature yesterday: 82 °F

Past Weeks' High & Low Weather Summary

 TemperatureHumidityPressure
High102 °F (Aug 21, 3:00 PM)64% (Aug 26, 6:00 AM)30.15 "Hg (Aug 26, 6:00 AM)
Low61 °F (Aug 29, 7:00 AM)9% (Aug 30, 3:00 PM)29.62 "Hg (Aug 25, 2:00 AM)
Average80 °F29%29.95 "Hg
* Reported Aug 21 7:00 AM — Sep 5 7:00 AM, Ashgabat, Weather by CustomWeather, © 2015

Note: Actual official high and low records may vary slightly from our data, if they occured in-between our weather recording intervals... More about our weather records

Advertising

Ashgabat weather history for previous 24 hours

 ConditionsComfort  
Time TempWeatherWind HumidityBarometerVisibility
7:00 AM
Sat, Sep 5
70 °FClear.No wind50%30.01 "Hg4 mi
6:00 AM70 °FClear.1 mph43%30.01 "HgN/A
5:00 AM72 °FClear.3 mph41%30.01 "HgN/A
4:00 AM72 °FClear.1 mph41%30.01 "Hg4 mi
3:00 AM75 °FClear.1 mph31%30.01 "HgN/A
2:00 AM75 °FClear.3 mph31%30.01 "HgN/A
1:00 AM75 °FClear.6 mph31%30.01 "HgN/A
12:00 AM75 °FClear.1 mph34%30.01 "HgN/A
11:00 PM
Fri, Sep 4
79 °FClear.1 mph30%30.04 "HgN/A
10:00 PM81 °FClear.3 mph28%30.04 "HgN/A
9:00 PM82 °FClear.6 mph25%30.01 "HgN/A
8:30 PM82 °FSunny.6 mph23%30.01 "HgN/A
8:00 PM86 °FSunny.3 mph18%30.01 "HgN/A
7:00 PM90 °FSunny.3 mph16%30.01 "HgN/A
6:00 PM91 °FSunny.6 mph15%30.01 "HgN/A
5:00 PM91 °FPassing clouds.6 mph15%29.98 "HgN/A
4:00 PM91 °FPassing clouds.6 mph15%30.01 "HgN/A
3:00 PM91 °FPassing clouds.3 mph15%30.01 "HgN/A
2:00 PM91 °FPassing clouds.6 mph15%30.01 "HgN/A
1:00 PM90 °FSunny.6 mph18%30.04 "HgN/A
12:00 PM88 °FSunny.6 mph19%30.04 "HgN/A
11:00 AM86 °FSunny.3 mph22%30.04 "HgN/A
10:00 AM82 °FSunny.3 mph28%30.04 "HgN/A
9:00 AM81 °FSunny.3 mph26%30.04 "HgN/A
8:00 AM75 °FSunny.1 mph36%30.04 "HgN/A
Weather by CustomWeather, © 2015

See weather overviewHow to use our weather pages